Regional Weather Roundup
Issued by NWS Northern Indiana

Home | Current Version | Previous Version | Text Only | Print | Product List | Glossary On
Versions: 1 2 3 4 5 6 7 8 9 10 11 12 13 14 15 16 17 18 19 20 21 22 23 24 25 26 27 28 29 30 31 32 33 34 35 36 37 38 39 40 41 42 43 44 45 46 47 48 49 50
000
ASUS43 KIWX 092110
RWRIWX

KIWX WEATHER ROUNDUP
NATIONAL WEATHER SERVICE NORTHERN INDIANA
400 PM EST TUE FEB 09 2016

NOTE: "FAIR" INDICATES FEW OR NO CLOUDS BELOW 12,000 FEET WITH NO
SIGNIFICANT WEATHER AND/OR OBSTRUCTIONS TO VISIBILITY.

* THESE STATIONS ARE NOT UNDER NWS QUALITY CONTROL. THEY ALSO MAY NOT
  REPORT WEATHER SUCH AS PRECIPITATION OR FOG.

INZ001>027-092200-
NORTHERN INDIANA

CITY           SKY/WX    TMP DP  RH WIND       PRES   REMARKS
VALPARAISO     LGT SNOW  20  11  68 MISG      29.83R
MICHIGAN CITY* LGT SNOW  21  16  79 W13G18    29.82R WCI   9
LAPORTE*       LGT SNOW  22  16  79 NW13G21   29.81R WCI   9
KNOX*          CLOUDY    21  14  73 W16       29.82R WCI   7
SOUTH BEND     LGT SNOW  21  17  84 NW15      29.78R FOG     WCI   8
ELKHART*       LGT SNOW  25  18  74 NW18      29.76R WCI  11
GOSHEN         CLOUDY    25  16  68 NW17      29.74R WCI  12
MONTICELLO*    LGT SNOW  20  11  69 NW14      29.83R WCI   6
LOGANSPORT*    FLURRIES  21  12  68 W13       29.82R WCI   9
ROCHESTER*     FLURRIES  27  14  59 W16       29.79R WCI  14
WARSAW*        FLURRIES  25  19  80 NW17      29.75R WCI  11
ANGOLA*        CLOUDY    25  19  80 NW14      29.68R WCI  13
FORT WAYNE     FLURRIES  35  18  49 NW13G22   29.73R WCI  26
HUNTINGTON*    FLURRIES  24  16  71 W9G17     29.75R WCI  14
PERU/GRISSOM   LGT SNOW  21  16  82 W16       29.78R FOG     WCI   7
MARION*        CLOUDY    21  11  65 W21       29.79R WCI   5

$$
INZ028>050-092200-
CENTRAL INDIANA

CITY           SKY/WX    TMP DP  RH WIND       PRES   REMARKS
LAFAYETTE      LGT SNOW  19  12  74 NW15      29.87R WCI   5
KOKOMO*        CLOUDY    21  16  79 NW16G23   29.80R WCI   7
MUNCIE*        LGT SNOW  23  16  74 W15G23    29.77R WCI  10
INDIANAPOLIS   LGT SNOW  22  15  75 W15       29.83R WCI   9

$$
MIZ043>046-050>051-056>058-064>065-071>073-077>080-092200-
SOUTHWEST LOWER MICHIGAN

CITY           SKY/WX    TMP DP  RH WIND       PRES   REMARKS
BATTLE CREEK   FLURRIES  26  19  74 NW17      29.68R WCI  13
BENTON HARBOR  LGT SNOW  24  17  74 NW14G25   29.78R WCI  12
COLDWATER*     FLURRIES  26  20  76 NW16      29.68R WCI  14
HILLSDALE*     CLOUDY    26  19  73 W20       29.64R WCI  12
HOLLAND        LGT SNOW  26  20  77 NW16      29.74R WCI  14
GRAND RAPIDS   FLURRIES  26  19  74 W17       29.69R WCI  13
KALAMAZOO      FLURRIES  26  17  68 NW18G30   29.70R WCI  13
STURGIS*       LGT SNOW  25  20  80 NW10G18   29.70R WCI  15
THREE RIVERS*  LGT SNOW  26  21  81 W18       29.72R WCI  13

$$
OHZ001>008-015>018-024>025-092200-
NORTHWEST OHIO

CITY           SKY/WX    TMP DP  RH WIND       PRES   REMARKS
DEFIANCE       CLOUDY    30  19  63 NW13G24   29.69R WCI  20
FINDLAY        CLOUDY    29  23  78 W18       29.66R WCI  16
TOLEDO EXPRESS CLOUDY    28  20  71 W13G25    29.65R WCI  17
TOLEDO METCALF CLOUDY    29  21  72 NW21      29.66R WCI  16
LIMA           CLOUDY    26  21  81 W16       29.68R WCI  14

$$
AND FOR LAKE MICHIGAN COASTAL AND OPEN LAKE BUOY OBSERVATIONS

STATION/POSITION TEMP    WIND        PRES    VSBY  WAVE
                 AIR SEA DIR/SP/G                  HT/PER
                 (F)     (DEG/KT/KT) (MB)    (MI)  (FT/S)
CALUMET HARBOR    19     270/  9/ 15 1009.8R
MICHIGAN CITY     20     280/ 20/ 24   N/A
BURNS HARBOR      20     320/ 12/ 22 1010.2R
SAINT JOSEPH      24     280/ 17/ 23 1009.8R

$$
&&



USA.gov is the U.S. government's official web portal to all federal, state and local government web resources and services.